[Iaude] MPEC L22: 2024 KD2 [a=2.01,e=0.70,i=23.2,H=22.9]
    mpec at cfa.harvard.edu 
    mpec at cfa.harvard.edu
       
    Sun Jun  2 03:50:25 EDT 2024
    
    
  
M.P.E.C. 2024-L22                                  Issued 2024 June 2, 07:48 UT
     The Minor Planet Electronic Circulars contain information on unusual
         minor planets, routine data on comets and natural satellites,
         and occasional editorial announcements.  They are published
    on behalf of Division F of the International Astronomical Union by the
          Minor Planet Center, Smithsonian Astrophysical Observatory,
                          Cambridge, MA 02138, U.S.A.
			  
             Prepared using the Tamkin Foundation Computer Network
                              MPC at CFA.HARVARD.EDU
            URL https://www.minorplanetcenter.net/    ISSN 1523-6714
                                    2024 KD2                                    
Observations:
     K24K02D* C2024 05 31.32833916 19 17.437+18 35 06.42         21.78wXEL022F52
     K24K02D  C2024 05 31.35318516 19 14.068+18 34 35.16         21.86wXEL022F52
     K24K02D  C2024 05 31.36563116 19 12.405+18 34 19.35         21.88wXEL022F52
     K24K02D  C2024 05 31.42540016 19 02.802+18 32 51.20         21.4 GVEL022H01
     K24K02D  C2024 05 31.42894016 19 02.340+18 32 46.52         21.5 GVEL022H01
     K24K02D  C2024 05 31.44041016 19 00.872+18 32 31.19         21.2 GVEL022H01
     K24K02D KC2024 05 31.44572616 19 00.232+18 32 25.58         21.55GVEL022V06
     K24K02D KC2024 05 31.44731616 19 00.037+18 32 23.46         21.50GVEL022V06
     K24K02D  C2024 05 31.44786216 18 59.930+18 32 21.25         21.7 GVEL022H01
     K24K02D KC2024 05 31.44890416 18 59.836+18 32 21.26         21.85GVEL022V06
     K24K02D KC2024 05 31.45049216 18 59.641+18 32 18.89         22.00GVEL022V06
     K24K02D 4C2024 06 01.25353 16 17 29.511+18 15 23.99         21.9 rVEL022G37
     K24K02D 4C2024 06 01.25995 16 17 28.717+18 15 16.14         21.8 rVEL022G37
     K24K02D KC2024 06 01.34947 16 17 17.91 +18 13 26.3                VEL022291
     K24K02D KC2024 06 01.36095 16 17 16.51 +18 13 12.6          21.4 RVEL022291
     K24K02D KC2024 06 01.37248 16 17 15.09 +18 12 57.7          21.9 RVEL022291
     K24K02D  C2024 06 01.42551716 17 08.765+18 11 49.12         21.8 GVEL022H01
     K24K02D  C2024 06 01.43040916 17 08.191+18 11 42.74         21.4 GVEL022H01
     K24K02D  C2024 06 01.44019216 17 07.074+18 11 30.31         21.4 GVEL022H01
     K24K02D  C2024 06 01.44746516 17 06.253+18 11 21.05         21.1 GVEL022H01
     K24K02D !C2024 06 02.29211 16 15 41.10 +17 54 23.5          21.0 GVEL022673
     K24K02D !C2024 06 02.30764 16 15 39.47 +17 54 05.6                VEL022673
Observer details:
291 LPL/Spacewatch II.  Observer J. V. Scotti.  1.8-m f/2.7 reflector + CCD.
673 Table Mountain Observatory, Wrightwood.  Observer J. Pittichova.  1.0-m
    f/15 reflector + CCD.
F52 Pan-STARRS 2, Haleakala.  Observers J. Herman, T. Lowe, P. Minguez, A.
    Schultz, I. Smith.  Measurers K. Chambers, T. de Boer, J. Fairlamb, H.
    Gao, M. Huber, C.-C. Lin, E. Magnier, Y. Ramanjooloo, R. Wainscoat, R.
    Weryk.  1.8-m Ritchey-Chretien + CCD.
G37 Lowell Discovery Telescope.  Observers A. Thirouin, S. S. Sheppard.
    Measurer S. S. Sheppard.  4-m Lowell Discovery Telescope + CCD.
H01 Magdalena Ridge Observatory, Socorro.  Observers W. H. Ryan, E. V. Ryan.
    Measurer W. H. Ryan.  2.4-m f/8.9 Ritchey-Chretien + CCD.
V06 Catalina Sky Survey-Kuiper.  Observer V. F. Carvajal.  Measurers T.
    Beuden, V. F. Carvajal, D. Fay, J. B. Fazekas, D. C. Fuls, A. R. Gibbs, A.
    D. Grauer, H. Groeller, J. K. Hogan, R. A. Kowalski, S. M. Larson, G. J.
    Leonard, D. Rankin, R. L. Seaman, F. C. Shelly, K. W. Wierzchos.  1.55-m
    reflector + 1K CCD.
Orbital elements:
2024 KD2                                                 Earth MOID = 0.0306 AU
Epoch 2024 Mar. 31.0 TT = JDT 2460400.5                 Veres                   
M   1.35635              (2000.0)            P               Q                  
n   0.34714987     Peri.  277.10889     -0.78057152     -0.54705280             
a   2.0050477      Node   230.24937     +0.60320338     -0.78608468             
e   0.6956253      Incl.   23.16080     -0.16387124     -0.28775703             
P   2.84           H   22.99          G   0.15           U   9                  
Residuals in seconds of arc
240531 F52  0.2+  0.3-    240531 H01  0.0   0.0     240601 H01  0.0   0.2+
240531 F52  0.2-  0.1-    240531 V06  0.0   0.1+    240601 H01  0.1-  0.0
240531 F52  0.1+  0.0     240531 V06  0.1+  0.1-    240601 H01  0.1-  0.1+
240531 H01  0.0   0.1-    240601 G37  0.1+  0.2-    240601 H01  0.1+  0.1+
240531 H01  0.0   0.1-    240601 G37  0.1-  0.2-    240602 673  1.5-  1.0-
240531 H01  0.1-  0.0     240601 291  0.9+  0.4-    240602 673  0.4-  0.5-
240531 V06  0.1-  0.2+    240601 291  0.6+  0.4+
240531 V06  0.0   0.2+    240601 291  0.1+  0.0
Ephemeris:
2024 KD2                 a,e,i = 2.01, 0.70, 23                  q = 0.6103
Date    TT    R. A. (2000) Decl.     Delta      r    Elong.  Phase     V
2024 05 03    02 36 33.6 -04 24 51   0.1328  0.8845    20.1   156.9    28.4
...
2024 05 18    17 47 41.6 +28 04 41   0.08355 1.0596   123.2    53.0    19.7
...
2024 05 26    16 34 29.5 +20 53 20   0.1810  1.1532   137.6    36.3    21.1
...
2024 06 01    16 17 57.4 +18 20 52   0.2593  1.2225   139.4    32.7    21.9
2024 06 02    16 16 10.3 +18 00 23   0.2727  1.2340   139.4    32.3    22.0
2024 06 03    16 14 34.1 +17 40 47   0.2861  1.2454   139.4    32.0    22.1
...
2024 06 09    16 07 48.2 +15 55 31   0.3682  1.3133   138.3    30.9    22.7
...
2024 06 17    16 03 40.9 +13 53 03   0.4823  1.4017   135.6    30.5    23.5
...
2024 07 02    16 04 06.8 +10 26 30   0.7106  1.5606   128.4    30.7    24.5
M. P. C. Staff               (C) Copyright 2024 MPC           M.P.E.C. 2024-L22
    
    
More information about the Iaude
mailing list